Погода в Жукове

Россия / Томская область     57°24′03″N   83°56′31″E
темп.,
°C
ветер,
м/с
пор.,
м/с
влажн.,
%
обл.,
%
осадки,
мм/ч
давл.,
гПа
погр.,
м
23 апреля, пт
пт2301:00−4с23955 0.0 104654
04:00−5с22956 0.0 104637
07:00−4с23915 0.0 104779
10:00+1ссв23815 0.0 1047298
13:00+4ссв236343 0.0 10461086
16:00+6ссв235376 0.0 10441449
19:00+5св236911 0.1 104477
22:000св228327 0.0 104417
24 апреля, сб
сб2401:00−1всв22855 0.0 104321
04:00−2св11875 0.0 104111
07:00−1ссв23845 0.0 104070
10:00+3с23675 0.0 1038484
13:00+5с33557 0.0 10361215
16:00+7ссз235135 0.0 10341438
19:00+6ссз246215 0.0 1033450
22:00+1с22805 0.0 103314
25 апреля, вс
вс2501:000сз11825 0.0 103210
04:00−1зсз11855 0.0 103211
07:000з11805 0.0 103246
10:00+5з12605 0.0 1032428
13:00+8зсз225314 0.0 10311412
16:00+10з234785 0.0 10301696
19:00+9зсз33587 0.1 1030766
22:00+5зюз22715 0.0 103011
26 апреля, пн
пн2601:00+3юз11775 0.0 103010
04:00+2ю22835 0.0 103010
07:00+2ююв23847 0.0 103060
10:00+7ююв356417 0.0 1029478
13:00+11ю465177 0.0 10271401
16:00+11ю5647100 0.0 10251579
19:00+10ю485477 0.0 1024953
22:00+7юв4973100 0.0 1022204
27 апреля, вт
вт2701:00+6ююв41370100 0.0 1019370
04:00+5ююв41177100 0.1 1017404
07:00+3ю2797100 5.6 1015487
10:00+7з478274 0.1 1015609
13:00+12зсз69465 0.1 10162118
16:00+12з58437 0.0 10161913
19:00+12з38466 0.0 10161904
22:00+7ююз376772 0.0 1016124